GEFSMA_500_meanwind_132.txt.gz
Wind_Speed
17 17 16 16 17 17 17 17 17 18 19 20 20 20 21 21 21 22 23 22 21 20 19 19 17 16 15 15 14 12 11 11 10 11 12 14 15 14 15 15 15 14 15
17 17 17 16 16 16 16 16 16 17 18 19 20 20 21 21 22 22 23 23 23 22 21 20 19 18 17 17 16 15 13 12 12 12 13 14 14 14 15 15 15 15 15
16 17 17 16 16 15 15 15 16 16 17 18 19 20 21 21 23 22 23 23 23 24 23 20 20 20 19 19 17 17 16 14 14 14 15 14 14 14 15 16 16 15 15
17 17 17 16 15 15 15 15 15 15 16 17 18 19 20 21 22 23 23 24 25 25 24 23 21 21 21 20 19 19 18 16 16 15 16 15 15 15 15 16 16 16 15
17 17 17 17 16 15 14 14 14 14 14 16 17 18 19 20 22 23 24 24 25 25 25 24 23 22 22 21 21 20 19 18 17 17 17 17 16 16 15 16 17 17 16
18 18 17 17 16 15 13 13 13 13 13 14 15 17 18 19 21 23 24 25 26 25 25 24 24 23 23 22 22 22 21 20 19 19 18 18 17 16 16 16 17 16 16
18 18 17 17 16 15 13 12 12 12 12 13 14 15 17 19 21 23 24 25 25 25 25 26 25 24 24 23 23 23 22 21 21 20 20 19 18 18 18 17 17 17 17
18 18 17 16 16 14 13 12 11 10 11 11 12 13 16 17 19 21 24 25 25 25 26 26 26 25 25 24 24 24 23 22 22 22 22 21 20 20 19 19 18 18 18
18 18 17 16 15 14 13 11 10 9 9 10 10 12 14 16 18 19 22 23 24 25 25 26 26 26 25 25 24 25 24 23 23 22 23 22 21 21 21 20 20 19 19
18 18 17 16 15 13 12 11 9 8 8 9 9 10 12 14 17 17 19 21 23 24 24 25 26 26 26 26 25 24 25 25 25 24 23 23 22 22 22 22 22 21 21
19 18 17 16 15 13 12 11 8 7 6 7 8 9 10 12 14 16 18 20 21 23 24 24 25 25 25 26 25 25 25 26 26 25 24 24 24 23 23 23 23 22 22
19 18 17 16 15 14 12 10 8 6 5 5 6 8 9 11 13 15 17 18 19 21 22 23 23 24 25 25 25 25 26 26 26 26 25 25 24 24 24 24 24 24 23
18 19 17 16 15 14 12 10 8 6 5 5 5 7 8 9 11 13 16 17 18 20 21 22 22 23 24 25 25 25 25 26 26 25 26 25 25 25 25 24 24 25 24
18 18 18 16 15 14 12 10 8 6 5 4 5 5 6 8 10 11 14 15 16 18 18 20 21 22 24 25 25 25 25 25 26 26 26 26 26 26 25 26 26 26 26
17 18 18 17 15 14 12 10 9 7 5 4 4 4 5 6 8 10 12 13 14 17 17 19 20 21 23 24 25 24 25 26 26 26 26 27 27 27 26 26 26 27 27
16 16 17 17 16 14 13 11 9 7 6 4 3 4 4 5 6 8 10 12 13 14 16 18 19 20 20 22 23 24 24 25 26 26 26 26 27 27 28 28 27 27 27
15 15 16 16 15 14 13 11 9 8 7 4 3 3 3 4 6 7 10 11 12 13 14 16 17 18 19 21 22 23 24 25 27 28 27 27 27 27 28 29 29 29 29
14 15 15 15 14 14 13 11 10 8 7 5 3 3 3 3 5 7 8 10 11 13 14 15 15 16 17 19 21 22 24 26 27 27 28 28 28 28 29 29 30 30 31
13 14 14 14 14 14 13 12 10 9 8 6 5 3 3 4 4 6 7 9 11 13 14 14 15 15 17 17 18 20 22 24 26 27 27 28 28 29 30 30 31 32 32
13 13 14 14 14 13 13 12 11 9 8 7 6 5 4 4 4 5 7 8 9 11 13 14 15 15 16 17 18 20 21 22 24 25 26 28 28 28 29 30 31 31 32
13 13 13 13 13 13 12 11 10 9 9 8 7 6 5 4 4 5 6 7 9 11 13 14 15 16 16 16 17 18 19 21 22 24 25 27 27 28 29 30 31 32 32
14 14 14 13 13 13 12 11 11 10 9 8 7 7 6 5 5 5 6 7 8 9 11 13 14 15 15 16 17 17 19 20 21 23 25 25 26 26 27 28 30 32 33
15 15 14 14 13 13 12 12 11 11 10 9 8 8 7 6 7 6 7 8 9 9 10 12 14 14 15 16 17 18 18 19 21 22 23 24 25 25 27 29 29 30 31
16 16 16 15 14 14 13 13 12 11 10 10 9 8 8 7 7 7 8 9 10 10 11 12 14 14 15 16 17 17 18 18 20 21 22 24 24 25 26 27 28 29 29
18 18 17 17 16 15 14 13 13 12 11 10 10 9 9 9 9 9 9 10 11 11 12 13 14 15 16 16 17 18 19 19 20 21 22 23 24 25 25 25 27 28 29
20 20 19 18 18 17 16 15 14 13 13 12 11 11 11 10 10 10 10 11 11 12 13 14 15 16 17 17 18 18 18 19 20 21 22 22 23 24 26 26 26 27 28

GEFSMA_500_meanwind_138.txt.gz
Wind_Speed
14 14 15 15 15 16 16 16 16 17 17 17 18 18 19 19 20 20 20 21 22 21 20 20 18 17 17 15 14 13 12 12 13 13 14 16 16 15 16 16 17 17 17
14 14 15 15 15 15 15 15 15 16 17 17 18 18 19 19 21 22 21 21 23 23 22 21 19 19 19 17 16 14 13 13 13 13 14 16 17 16 16 17 18 18 17
14 14 15 15 15 15 14 14 14 15 16 16 17 18 19 19 21 22 22 22 23 24 23 22 21 20 21 19 18 17 15 15 14 13 14 16 17 18 18 18 18 18 17
14 15 15 16 16 15 15 14 14 14 14 15 16 17 18 19 20 22 23 23 23 24 24 23 23 22 22 21 20 19 17 16 16 15 15 15 16 17 18 19 18 17 17
15 16 16 16 16 15 15 14 13 13 13 13 14 16 17 19 20 22 23 24 24 25 25 24 24 23 23 23 22 21 19 18 17 17 16 16 16 17 17 18 19 18 18
16 16 16 16 16 15 14 13 12 12 12 12 13 14 16 17 19 21 23 24 24 26 26 25 24 24 24 24 23 22 21 20 19 18 18 17 17 18 17 17 18 18 18
17 17 16 16 16 15 13 12 11 10 10 11 12 13 15 16 18 20 22 24 24 26 26 27 25 25 24 24 24 24 23 22 21 20 19 19 18 18 18 18 19 19 18
17 17 17 16 16 15 13 12 10 9 9 10 11 12 14 15 17 19 21 24 24 25 26 27 26 25 24 25 25 25 24 23 23 21 21 21 20 19 19 19 20 20 19
17 17 17 16 16 15 13 12 10 9 8 8 9 10 11 13 16 18 21 23 24 25 26 27 26 26 25 25 26 26 25 24 24 23 22 22 22 21 21 21 21 21 21
17 17 17 17 16 15 13 12 10 8 7 6 7 8 9 11 14 17 19 22 23 24 26 27 26 26 26 26 27 27 26 26 25 24 23 23 23 23 22 22 22 22 22
17 17 17 16 15 14 13 11 9 7 6 5 5 6 8 9 12 15 18 20 22 24 25 26 26 25 25 26 27 27 27 27 26 25 25 24 24 24 23 23 23 23 23
17 17 17 16 15 14 13 11 9 7 5 4 5 6 7 9 11 13 15 17 20 23 24 26 27 26 25 25 26 27 27 27 27 26 26 26 25 25 25 24 24 24 24
17 17 16 15 14 13 12 11 9 7 6 5 5 5 7 8 10 12 14 16 19 21 22 24 25 25 25 26 25 26 27 27 26 26 26 27 26 25 25 25 25 25 25
16 16 16 15 14 13 12 11 10 8 6 5 5 5 6 7 9 10 13 15 17 19 21 22 23 24 25 25 25 25 26 26 27 27 27 27 27 27 26 26 25 26 26
15 15 15 15 14 13 12 11 10 8 7 6 5 5 5 6 7 9 11 13 15 16 18 20 21 22 23 24 24 25 26 26 26 27 27 27 28 28 27 27 27 27 27
15 15 14 14 14 13 12 11 10 9 7 6 6 5 5 6 7 8 10 12 14 15 17 18 19 20 22 22 23 24 26 26 26 27 27 27 28 28 28 27 27 28 28
15 15 14 14 14 14 13 12 11 9 8 7 6 5 5 5 6 7 9 11 13 14 16 17 19 20 21 22 22 23 25 26 26 27 27 27 27 28 29 28 28 29 28
15 14 14 13 13 13 13 12 11 10 9 7 6 6 5 5 6 6 8 10 12 14 15 16 18 19 20 22 22 23 24 25 26 26 27 28 28 27 28 29 29 29 29
15 14 14 14 13 13 13 12 12 11 9 8 7 6 5 4 5 6 7 10 11 13 14 15 16 17 19 20 22 23 23 24 26 27 27 27 28 28 29 29 29 30 29
15 15 14 14 14 14 13 12 12 11 10 8 7 6 5 5 5 6 7 8 10 12 13 15 16 17 18 20 21 22 23 23 24 25 26 27 28 28 29 30 30 31 31
16 16 15 14 14 14 13 13 12 11 10 9 8 7 6 6 7 7 7 9 10 11 12 13 15 16 18 19 21 21 22 22 23 24 25 26 27 27 28 29 30 31 31
17 17 16 15 15 14 14 14 13 12 11 10 9 9 8 8 8 8 8 9 10 11 12 13 14 15 16 18 20 21 21 22 23 24 25 25 25 26 27 28 29 30 31
18 18 18 17 16 16 15 14 14 13 12 11 11 10 9 8 9 9 10 10 10 11 12 13 14 14 16 18 18 20 21 21 22 24 24 25 26 27 27 27 28 29 30
20 19 19 19 18 17 17 16 15 15 14 13 12 12 11 10 10 10 11 11 12 12 13 14 14 14 15 17 18 19 21 21 22 23 24 25 25 26 27 27 28 29 30
22 22 21 21 20 20 19 18 18 17 16 15 15 14 13 12 12 11 12 12 13 13 14 15 15 15 16 17 19 19 20 21 21 22 23 24 25 25 25 26 27 28 28
25 24 24 23 23 23 22 21 20 19 19 18 17 16 15 15 14 13 14 14 14 15 15 15 16 17 18 18 18 19 20 20 21 21 23 24 25 25 25 26 27 28 28

GEFSMA_500_meanwind_144.txt.gz
Wind_Speed
14 14 15 15 15 15 15 14 14 15 15 15 15 15 14 15 15 16 16 18 18 18 17 17 16 16 14 14 13 12 11 10 11 13 13 14 15 16 16 16 15 14 15
15 15 16 16 16 16 15 15 15 15 14 15 15 15 14 15 15 16 16 17 18 19 18 18 17 17 16 15 14 13 13 12 11 12 12 14 16 16 16 16 16 15 15
16 16 17 17 16 16 16 15 15 15 14 14 14 14 14 15 15 16 17 17 18 19 19 19 19 18 17 16 15 15 14 14 13 13 13 13 16 16 16 16 17 17 16
17 17 17 17 17 16 16 15 14 14 13 13 13 13 14 14 15 16 17 18 18 19 20 20 20 19 19 18 17 16 15 15 14 13 13 14 16 17 16 16 16 16 16
17 17 17 17 17 16 16 14 14 13 12 12 12 12 13 14 14 16 17 18 18 19 20 21 21 21 20 19 18 17 17 16 15 14 14 15 16 16 16 15 16 17 17
18 18 18 17 17 16 15 14 13 12 11 10 10 11 12 12 14 16 17 18 18 18 19 21 21 22 21 21 20 19 19 18 16 15 15 15 16 16 16 16 16 17 17
18 18 18 17 17 17 16 14 13 12 11 10 9 10 11 11 12 14 16 17 18 18 19 21 21 22 22 22 21 21 21 20 19 17 16 16 16 16 17 17 17 17 17
18 18 18 17 17 17 16 15 14 12 10 9 8 9 9 10 11 12 14 16 17 18 19 20 22 21 22 22 21 22 22 21 20 19 18 17 17 16 16 16 16 16 16
18 18 18 17 17 17 16 15 14 12 10 9 8 7 8 9 10 11 12 15 17 18 19 20 22 22 22 23 22 22 23 22 22 20 19 19 18 17 16 16 16 17 17
18 17 17 17 17 17 17 15 13 12 10 9 8 7 7 7 9 10 11 14 16 17 19 20 21 21 22 23 23 22 23 23 23 21 20 20 19 18 18 18 18 18 18
17 17 17 17 16 16 16 15 13 12 10 9 8 7 7 7 7 9 10 12 14 15 17 20 21 21 22 22 22 22 23 24 24 23 22 21 21 20 19 19 20 20 20
17 17 17 16 16 16 16 15 13 12 10 9 8 7 7 6 7 8 9 11 12 14 16 18 20 21 21 22 22 22 23 24 24 24 23 21 21 22 21 21 20 20 21
16 17 17 16 16 15 15 14 13 12 10 9 9 8 7 7 7 7 8 10 11 13 15 16 18 19 20 22 22 22 21 23 24 24 24 23 22 22 22 22 21 21 21
16 16 16 16 15 15 14 14 14 13 11 10 9 8 8 7 7 7 8 9 10 13 14 15 17 18 20 21 21 21 22 22 23 23 23 23 23 23 22 22 22 22 22
16 16 16 15 15 15 14 14 14 13 12 11 10 9 8 8 8 8 8 9 10 12 14 15 16 17 19 21 22 22 22 22 22 23 24 24 24 23 23 23 23 23 23
16 16 16 15 15 15 14 14 14 13 13 12 11 10 9 9 8 8 8 8 9 10 13 15 16 17 18 20 21 21 22 23 22 23 24 24 24 24 25 25 24 24 24
15 16 16 15 15 15 15 14 14 14 13 12 11 10 10 9 9 8 8 8 9 10 11 14 15 16 18 20 20 21 22 22 23 23 24 24 24 25 25 25 25 25 25
16 15 15 15 15 15 15 15 14 14 13 13 12 11 10 9 9 9 8 8 9 10 11 12 14 16 18 19 19 21 22 22 24 24 24 24 24 25 25 25 26 26 26
16 16 15 15 15 15 15 15 14 14 13 13 13 12 11 10 9 9 8 8 9 10 11 12 14 15 17 19 19 20 21 22 23 24 25 25 25 26 26 26 27 26 26
17 16 16 16 16 16 16 15 15 14 14 13 13 13 12 11 11 10 9 9 9 10 11 12 14 15 16 18 19 20 20 21 22 24 25 26 26 26 26 27 27 28 27
17 17 17 17 17 17 16 16 16 15 15 14 14 13 12 12 12 11 11 10 10 10 11 12 14 15 16 17 18 19 20 21 22 23 24 24 25 26 27 27 27 28 28
19 19 19 19 18 18 18 18 17 17 16 16 15 14 13 13 13 12 12 11 11 11 11 12 14 15 15 17 17 18 19 20 21 22 23 24 25 26 27 27 27 27 27
21 21 20 20 20 20 20 20 19 18 18 17 17 16 15 15 14 14 14 13 12 12 12 13 13 14 15 16 17 18 19 19 20 21 22 23 24 25 26 26 27 27 26
23 23 23 22 22 22 22 22 21 21 20 19 19 18 17 17 16 16 15 14 14 14 14 14 14 15 15 16 16 17 19 20 21 22 22 23 23 24 24 25 26 26 27
26 25 25 25 25 24 24 24 24 24 23 22 21 21 20 19 19 18 17 16 16 16 16 15 16 16 17 17 17 18 19 20 21 22 22 22 23 24 25 25 25 25 26
29 29 28 27 27 27 27 26 26 25 25 24 24 23 22 21 21 21 20 19 19 18 18 18 18 18 18 19 19 19 20 21 21 22 23 24 24 24 24 25 25 25 26

GEFSMA_500_meanwind_150.txt.gz
Wind_Speed
11 11 12 12 13 13 13 12 12 12 11 11 11 12 12 12 12 13 13 14 15 16 16 16 16 15 14 14 13 12 12 12 12 13 13 15 17 17 18 17 17 16 16
12 13 13 13 13 13 13 13 12 12 11 10 10 11 12 12 12 12 13 14 14 15 16 16 16 16 15 15 14 13 13 12 13 13 14 15 17 17 17 17 17 16 16
13 14 14 14 14 13 13 12 12 11 10 10 10 10 11 11 12 12 13 14 14 15 16 16 16 17 16 16 15 14 14 14 13 14 14 15 16 17 17 17 17 18 17
13 14 14 15 14 13 13 12 11 11 10 10 9 10 10 11 11 12 13 14 15 16 16 17 18 17 17 16 16 15 15 15 15 15 15 16 16 17 17 17 18 18 18
13 14 15 15 14 14 13 13 12 11 10 9 9 9 10 11 11 12 12 14 15 16 17 17 18 18 18 17 17 17 15 16 16 17 16 16 17 18 18 18 19 19 18
13 14 15 15 14 14 14 13 12 11 10 9 9 9 9 10 11 12 12 13 14 15 16 17 18 19 19 18 18 18 17 16 16 17 17 17 18 19 18 18 19 19 19
14 14 15 15 14 14 14 13 12 11 9 8 8 8 8 9 10 12 12 12 14 14 15 17 18 19 20 20 20 19 18 17 17 17 17 18 18 19 19 19 19 19 19
14 14 14 15 15 15 14 13 12 10 9 7 7 6 7 8 9 10 12 12 13 14 15 17 18 19 21 20 20 21 20 19 18 17 18 18 18 19 19 20 19 19 19
14 14 14 15 14 14 14 13 12 10 8 7 6 5 6 7 8 9 11 12 13 14 15 16 18 19 20 21 21 21 21 21 20 19 18 18 19 19 19 20 20 20 19
13 14 15 15 14 14 13 13 12 10 9 7 6 5 5 5 6 8 9 11 13 14 15 16 17 18 20 21 21 22 22 22 22 21 20 20 20 19 20 20 20 20 20
13 14 14 14 14 14 13 12 12 11 9 7 6 5 4 4 5 6 8 10 12 13 14 15 17 18 19 20 21 22 22 22 23 23 22 22 21 21 21 21 21 20 21
13 13 13 14 14 14 13 12 12 11 9 8 7 6 4 4 4 5 7 9 10 12 13 14 16 17 18 19 21 22 23 23 24 24 23 23 23 23 23 22 22 21 21
12 13 13 13 13 13 13 12 12 11 10 8 8 7 5 4 4 5 6 8 10 11 13 14 16 17 18 19 20 21 22 23 24 25 25 25 24 24 24 24 23 22 22
12 12 12 12 13 12 12 12 12 11 10 9 8 8 7 5 5 5 6 7 9 10 12 13 15 16 17 19 20 21 22 22 23 24 25 25 25 25 25 25 24 24 23
12 12 12 12 12 12 12 12 12 12 11 10 9 8 8 7 6 5 5 6 8 9 10 12 14 16 16 17 19 20 22 23 23 24 24 25 25 25 25 25 25 25 24
12 12 12 12 12 12 12 12 12 12 11 10 10 9 8 7 6 5 6 7 8 9 10 12 14 15 16 17 18 20 22 23 23 23 24 25 25 25 26 26 26 26 26
12 13 12 12 12 12 13 13 13 12 12 11 10 10 9 7 6 6 6 7 8 9 11 12 14 15 16 17 18 20 21 22 23 24 24 25 26 25 26 26 27 27 27
13 13 13 13 13 13 13 13 13 13 13 12 11 11 10 8 8 8 8 8 9 10 11 13 14 15 17 18 19 20 22 22 24 25 25 26 27 26 27 28 28 28 28
14 14 14 14 14 14 14 14 14 14 14 13 12 11 11 10 10 10 10 10 10 11 12 13 14 15 17 18 20 21 22 23 24 26 26 27 28 28 28 28 28 29 28
15 15 15 15 16 15 16 16 16 16 15 15 14 13 12 12 12 12 12 11 12 12 13 14 15 16 17 18 20 21 23 24 25 26 27 28 29 29 29 30 30 30 30
16 17 17 17 17 17 17 17 17 17 17 16 16 15 14 14 14 14 14 13 13 13 14 14 15 16 17 18 19 21 22 23 24 26 27 27 28 29 28 29 30 31 31
18 19 19 19 19 20 20 19 19 19 18 17 17 17 17 16 16 16 16 16 15 15 15 15 16 17 17 18 19 20 21 22 23 24 25 26 27 27 28 28 29 30 31
20 20 21 22 22 22 22 22 22 21 20 20 19 19 19 19 18 18 18 17 17 17 17 17 17 18 18 19 20 21 21 22 23 24 25 25 27 27 28 28 28 29 30
24 24 24 25 25 25 25 25 25 24 23 23 22 22 22 21 21 20 20 19 19 19 19 20 19 19 20 20 21 21 22 23 24 25 25 26 27 28 29 29 29 30 31
27 28 28 28 28 27 27 27 27 26 26 25 25 24 24 24 23 23 22 21 21 21 21 21 21 21 22 22 23 23 24 24 24 25 26 26 28 29 29 29 30 31 32
30 30 31 31 30 30 30 30 29 29 29 28 28 28 27 26 26 26 26 25 24 24 24 24 24 24 24 24 24 25 26 26 26 26 27 28 29 29 29 29 30 31 32